Weather Roundup
Issued by NWS

Home | Current Version | Previous Version | Text Only | Print | Product List | Glossary On
Versions: 1 2 3 4 5 6 7 8 9 10 11 12 13 14 15 16 17 18 19 20 21 22 23 24 25 26 27 28 29 30 31 32 33 34 35 36 37 38 39 40 41 42 43 44 45 46 47 48 49 50
000
NZUS93 KARX 261110
HRRWXR

CURRENT HOURLY OBSERVATIONS ACROSS
MUCH OF THE UPPER MISSISSIPPI VALLEY
NATIONAL WEATHER SERVICE LA CROSSE WI
500 AM CST FRI DEC 26 2014


...SOUTHEAST MINNESOTA...


CITY           SKY/WX    TMP DP  RH WIND       PRES   REMARKS
ROCHESTER      CLEAR     28  27  96 E7        29.83S WCI  21
ROCHESTER/MAYO FAIR      31  30  94 E8        29.83F WCI  24
WINONA         PTCLDY    28  27  93 CALM      29.87F FOG
AUSTIN         CLEAR     27  25  93 CALM      29.82S
ALBERT LEA     PTCLDY    27  27 100 CALM      29.82S FOG
DODGE CENTER   CLOUDY    30  30 100 E6        29.82S WCI  24
PRESTON        CLEAR     30  28  91 CALM      29.84S
OWATONNA       CLOUDY    32  30  93 N6        29.85R FOG     WCI  26
FARIBAULT      CLOUDY    32  30  93 N8        29.86S FOG     WCI  25
$$

...ELSEWHERE IN MINNESOTA...


CITY           SKY/WX    TMP DP  RH WIND       PRES   REMARKS
MINNEAPOLIS    CLOUDY    32  29  88 N10       29.89R WCI  24
INTNL FALLS    CLOUDY    25  22  88 NW8       29.98S WCI  16
DULUTH         CLOUDY    28  21  75 N10       29.92R WCI  19
RED WING       CLOUDY    34  30  86 CALM      29.86S
REDWOOD FALLS  CLOUDY    31  28  89 N9        29.93R WCI  23
MANKATO        CLOUDY    32  28  86 N12       29.86S WCI  23
WORTHINGTON    CLOUDY    28 -18  12 N17       29.90R WCI  16
FAIRMONT       CLOUDY    32  28  86 N13       29.86R WCI  22
$$

...SOUTHWEST WISCONSIN...


CITY           SKY/WX    TMP DP  RH WIND       PRES   REMARKS
LA CROSSE      FOG       23  22  96 CALM      29.87S VSB 3/4
PRAIRIE DU CHI CLEAR     33  29  85 E5        29.87R WCI  29
BOSCOBEL       PTCLDY    28  26  92 CALM      29.89R
LONE ROCK      PTCLDY    36  30  79 E3        29.89S
PLATTEVILLE    PTCLDY    36  33  87 CALM      29.89S
FORT MC COY    CLEAR     24  24 100 CALM      29.87F
CAMP DOUGLAS   PTCLDY    25  25 100 CALM      29.87S FOG
VIROQUA        FAIR      33  33 100 SE5       29.85S WCI  28
WIS DELLS      MOCLDY    37  32  84 S5        29.88S WCI  33
$$

...ELSEWHERE IN WISCONSIN...


CITY           SKY/WX    TMP DP  RH WIND       PRES   REMARKS
MILWAUKEE      CLOUDY    39  33  79 SW10      29.95R WCI  32
MADISON        MOCLDY    36  33  89 S5        29.91R WCI  32
GREEN BAY      MOCLDY    31  30  96 CALM      29.92F FOG
EAU CLAIRE     CLOUDY    30  27  88 NE3       29.87S
BLACK RVR FLS  FAIR      21  21 100 CALM      29.87S FOG
MEDFORD        CLOUDY    26  26  97 NE5       29.86S FOG     WCI  21
WAUSAU         CLOUDY    28  27  96 CALM      29.87F
WIS RAPIDS     PTCLDY    25  23  92 CALM      29.89F FOG
MARSHFIELD     MOCLDY    28  25  88 E5        29.87S FOG     WCI  23
RICE LAKE      CLOUDY    31  30  96 N10       29.89F FOG     WCI  22
$$

...NORTHEAST IOWA...


CITY           SKY/WX    TMP DP  RH WIND       PRES   REMARKS
DECORAH        PTCLDY    36  32  87 VRB3      29.83S
MASON CITY     FOG       25  24  96 CALM      29.83S VSB 1
CHARLES CITY   CLEAR     32  32 100 SE6       29.83S WCI  26
OELWEIN        CLEAR     32  30  93 SE8       29.85R WCI  25
$$

...ELSEWHERE IN IOWA...


CITY           SKY/WX    TMP DP  RH WIND       PRES   REMARKS
DES MOINES     PTCLDY    37  30  75 S10       29.82S WCI  30
IOWA CITY      CLEAR     39  32  76 S9        29.90S WCI  33
FORT DODGE     CLEAR     27  21  80 NW7       29.83R WCI  19
$$

...NORTHERN ILLINOIS...


CITY           SKY/WX    TMP DP  RH WIND       PRES   REMARKS
CHICAGO-OHARE  PTCLDY    36  31  82 S13       29.98R WCI  27
CHICAGO-MIDWAY PTCLDY    38  32  79 S13       30.00S WCI  30
MOLINE         MOCLDY    41  33  73 S15G23    29.91S
ROCKFORD       CLOUDY    38  34  85 S12       29.97R WCI  30
PEORIA         PTCLDY    37  33  85 S12       29.99F WCI  29
$$

NOTE: "FAIR" INDICATES FEW OR NO CLOUDS BELOW 12,000 FEET WITH NO
SIGNIFICANT WEATHER AND/OR OBSTRUCTIONS TO VISIBILITY. WIND
SPEEDS ARE IN MILES-PER-HOUR.



USA.gov is the U.S. government's official web portal to all federal, state and local government web resources and services.